Regional Weather Roundup
Issued by NWS Mt. Holly, NJ

Current Version | Previous Version | Text Only | Print | Product List | Glossary Off
Versions: 1 2 3 4 5 6 7 8 9 10 11 12 13 14 15 16 17 18 19 20 21 22 23 24 25 26 27 28 29 30 31 32 33 34 35 36 37 38 39 40 41 42 43 44 45 46 47 48 49 50

000
ASUS41 KPHI 180712
RWRPHI

REGIONAL WEATHER ROUNDUP
NATIONAL WEATHER SERVICE MOUNT HOLLY NJ
300 AM EDT WED OCT 18 2017

NOTE:  "FAIR" INDICATES FEW OR NO CLOUDS BELOW 12,000 FEET WITH NO
SIGNIFICANT WEATHER AND/OR OBSTRUCTIONS TO VISIBILITY.

 * = STATION DOES NOT REPORT PRECIPITATION (E.G. RAIN, SNOW, ETC.)
        OR FOG.

NJZ015>026-180800-
SOUTHERN NEW JERSEY

CITY           SKY/WX    TMP DP  RH WIND       PRES   REMARKS
POMONA         CLEAR     41  38  89 W3        30.32S
WILDWOOD*      CLEAR     41  40  96 CALM      30.34R
MILLVILLE      CLEAR     38  37  97 CALM      30.33S
WRIGHTSTOWN    CLEAR     41  37  87 CALM      30.30S
MOUNT HOLLY    CLEAR     42  41  96 CALM      30.31F
TRENTON        CLEAR     42  38  85 CALM      30.30F

$$
NJZ001>014-180800-
NORTHERN NEW JERSEY

CITY           SKY/WX    TMP DP  RH WIND       PRES   REMARKS
SUSSEX         CLEAR     38  37  97 SW3       30.27F
ANDOVER*         N/A     39  38  96 S3        30.28F
MORRISTOWN     CLEAR     36  36 100 CALM      30.29F
NEWARK         CLEAR     46  36  68 SW5       30.29F
TETERBORO      CLEAR     47  37  68 SW3       30.28F
CALDWELL       CLEAR     43  38  82 CALM      30.29F
SOMERVILLE     CLEAR     35  35 100 CALM      30.29S
ALLAIRE*       CLEAR     44  38  79 SW7       30.31F
TOMS RIVER*      N/A     36  34  92 CALM      30.32S

$$
PAZ043-044-047-054-055-060>062-066>071-180800-
EASTERN PENNSYLVANIA

CITY           SKY/WX    TMP DP  RH WIND       PRES   REMARKS
PHILADELPHIA   CLEAR     49  37  63 W3        30.32F
NORTH PHILA    CLEAR     46  38  73 CALM      30.33S
BLUE BELL*     CLEAR     36  36 100 CALM      30.33S
DOYLESTOWN     CLEAR     43  38  82 CALM      30.29F
QUAKERTOWN*    CLEAR     37  37 100 CALM      30.31F
PERKASIE*      FAIR      45  37  76 W3        30.31F
POTTSTOWN      CLEAR     38  37  97 CALM      30.33S
LANCASTER      CLEAR     42  40  92 CALM      30.32S
COATESVILLE    CLEAR     43  39  87 W6        30.32F
READING        CLEAR     42  40  92 CALM      30.30S
ALLENTOWN      CLEAR     42  37  82 CALM      30.30S
MOUNT POCONO   CLEAR     44  34  67 W9        30.26F
HAZLETON       CLEAR     34  28  80 CALM      30.30F
LEHIGHTON      FAIR      34  34 100 CALM      30.31S
WILKES BARRE   CLEAR     41  37  86 CALM      30.27F

$$
DEZALL-MDZ008-012-015-019-020-180800-
DELAWARE AND EASTERN MARYLAND

CITY           SKY/WX    TMP DP  RH WIND       PRES   REMARKS
WILMINGTON     CLEAR     44  42  93 CALM      30.33S
DOVER          CLEAR     43  43 100 S5        30.32S
GEORGETOWN     CLEAR     39  37  92 CALM      30.34S
EASTON         CLEAR     44  41  91 CALM      30.37S
ABERDEEN       CLEAR     40  40  99 CALM      30.33F
PATUXENT       CLEAR     39  32  76 W3        30.33S
OCEAN CITY     CLEAR     39  38  96 CALM      30.34S
WALLOPS ISLAND CLEAR     42  41  96 NW3       30.34S
CAMBRIDGE      CLEAR     39  37  93 CALM      30.34S
SALISBURY      PTCLDY    38  36  92 CALM      30.34S

$$
PAZ001-021-NYZ056-072-MDZ011-DCZ001-180800-
OTHER NEARBY LOCATIONS

CITY           SKY/WX    TMP DP  RH WIND       PRES   REMARKS
HARRISBURG     CLEAR     45  42  89 CALM      30.31S
STATE COLLEGE  PTCLDY    47  38  73 SW6       30.30S
WILLIAMSPORT   CLEAR     42  40  92 CALM      30.29F
BINGHAMTON     CLEAR     47  36  65 SW7       30.22S
NEW YORK CITY  CLEAR     51  38  60 VRB6      30.31S
BALTIMORE      CLEAR     42  41  96 CALM      30.33S
WASHINGTON DC  PTCLDY    49  43  80 CALM      30.34F

$$



USA.gov is the U.S. government's official web portal to all federal, state and local government web resources and services.